This is the latest recevied weather packets stored in our database for station/object AI5KP-13. If no packets are shown the sender has not sent any weather packets the latest 10 day(s).
| Time | Temp. | Humidity | Pressure | Rain* | Wind** | Luminosity | Snow |
|---|---|---|---|---|---|---|---|
| 1777740060 | 18.89° C | 41% | 1020.7 hPa | 0 mm | - | 686 W/m² | - |
| 1777739756 | 19.44° C | 39% | 1020.9 hPa | 0 mm | - | 684 W/m² | - |
| 1777739453 | 18.33° C | 43% | 1020.8 hPa | 0 mm | - | 678 W/m² | - |
| 1777739150 | 18.89° C | 42% | 1020.8 hPa | 0 mm | - | 670 W/m² | - |
| 1777738847 | 18.89° C | 44% | 1020.6 hPa | 0 mm | - | 662 W/m² | - |
| 1777738544 | 18.89° C | 44% | 1020.6 hPa | 0 mm | - | 654 W/m² | - |
| 1777738242 | 17.78° C | 47% | 1020.7 hPa | 0 mm | - | 646 W/m² | - |
| 1777737940 | 18.33° C | 44% | 1020.6 hPa | 0 mm | - | 636 W/m² | - |
| 1777737638 | 18.33° C | 47% | 1020.9 hPa | 0 mm | - | 626 W/m² | - |
| 1777737331 | 17.22° C | 50% | 1020.6 hPa | 0 mm | - | 616 W/m² | - |
| 1777737027 | 16.67° C | 52% | 1020.6 hPa | 0 mm | - | 605 W/m² | - |
| 1777736722 | 16.67° C | 55% | 1020.7 hPa | 0 mm | - | 590 W/m² | - |
| 1777736083 | 16.67° C | 49% | 1020.6 hPa | 0 mm | - | 569 W/m² | - |
| 1777735780 | 17.78° C | 53% | 1020.6 hPa | 0 mm | - | 559 W/m² | - |
| 1777735478 | 16.67° C | 53% | 1020.6 hPa | 0 mm | - | 547 W/m² | - |
| 1777735175 | 17.22° C | 56% | 1020.5 hPa | 0 mm | - | 535 W/m² | - |
| 1777734872 | 17.22° C | 52% | 1020.4 hPa | 0 mm | - | 523 W/m² | - |
| 1777734569 | 16.67° C | 54% | 1020.6 hPa | 0 mm | - | 509 W/m² | - |
| 1777734266 | 16.67° C | 58% | 1020.5 hPa | 0 mm | - | 495 W/m² | - |
| 1777733962 | 16.11° C | 58% | 1020.8 hPa | 0 mm | - | 483 W/m² | - |
| 1777733659 | 15.56° C | 63% | 1020.7 hPa | 0 mm | - | 467 W/m² | - |
| 1777733355 | 15.56° C | 61% | 1020.4 hPa | 0 mm | - | 452 W/m² | - |
| 1777733053 | 16.11° C | 60% | 1020.6 hPa | 0 mm | - | 439 W/m² | - |
| 1777732748 | 15.56° C | 62% | 1020.4 hPa | 0 mm | - | 426 W/m² | - |
| 1777732446 | 15.56° C | 65% | 1020.4 hPa | 0 mm | - | 411 W/m² | - |
* Rain latest hour (hover to see other rain measurements)
** Current wind speed in m/s (hover to see current wind gust speed)